Location: Newark
(48.1500°N, 2.9667°W)
Time: 19:30:27
(UTC+00:00)

A-11 Canister half - Visible Passes

Search period start: 24 January 2020 00:00
Search period end: 03 February 2020 00:00
Orbit: 1517 x 1683 km, 47.2° (Epoch: 24 January)

Date Brightness Start Highest point End Pass type
(mag) Time Alt. Az. Time Alt. Az. Time Alt. Az.
24 Jan 9.4 03:26:10 51° E 03:26:10 51° E 03:32:38 10° E visible
24 Jan 9.0 05:24:22 39° W 05:27:55 61° SSW 05:37:03 10° SE visible
25 Jan 9.9 03:04:33 39° E 03:04:33 39° E 03:09:43 10° E visible
25 Jan 8.9 05:02:45 50° WSW 05:05:03 63° SSW 05:14:12 10° SE visible
25 Jan 10.0 07:01:23 10° W 07:08:38 27° SW 07:16:00 10° S visible
26 Jan 10.3 02:42:59 29° E 02:42:59 29° E 02:46:48 10° E visible
26 Jan 8.8 04:41:10 61° SW 04:42:10 65° SSW 04:51:21 10° SE visible
26 Jan 9.9 06:39:23 13° W 06:45:50 28° SW 06:53:22 10° S visible
27 Jan 10.6 02:21:26 21° E 02:21:26 21° E 02:23:53 10° E visible
27 Jan 8.9 04:19:38 66° S 04:19:38 66° S 04:28:29 10° ESE visible
27 Jan 9.8 06:17:51 18° W 06:23:02 30° SW 06:30:43 10° SSE visible
28 Jan 10.9 01:59:55 14° E 01:59:55 14° E 02:00:59 10° E visible
28 Jan 9.1 03:58:08 58° SSE 03:58:08 58° SSE 04:05:37 10° ESE visible
28 Jan 9.7 05:56:21 23° W 06:00:13 32° SW 06:08:04 10° SSE visible
29 Jan 9.5 03:36:41 46° SE 03:36:41 46° SE 03:42:45 10° ESE visible
29 Jan 9.6 05:34:54 29° WSW 05:37:24 33° SW 05:45:23 10° SSE visible
30 Jan 10.0 03:15:17 34° SE 03:15:17 34° SE 03:19:53 10° ESE visible
30 Jan 9.5 05:13:30 34° SW 05:14:35 35° SW 05:22:42 10° SSE visible
30 Jan 10.9 20:28:22 10° S 20:28:32 10° S 20:28:32 10° S visible
31 Jan 10.4 02:53:56 24° ESE 02:53:56 24° ESE 02:57:00 10° ESE visible
31 Jan 9.5 04:52:10 37° SW 04:52:10 37° SW 04:59:59 10° SSE visible
31 Jan 10.6 20:05:51 10° S 20:07:32 14° SSE 20:07:32 14° SSE visible
01 Feb 10.8 02:32:39 16° ESE 02:32:39 16° ESE 02:34:07 10° ESE visible
01 Feb 9.6 04:30:53 35° SSW 04:30:53 35° SSW 04:37:17 10° SSE visible
01 Feb 10.5 06:30:11 10° WSW 06:31:40 10° WSW 06:33:08 10° SW visible
01 Feb 10.4 19:43:23 10° SSE 19:46:31 16° SSE 19:46:31 16° SSE visible
01 Feb 10.8 21:43:35 10° SW 21:44:46 14° SW 21:44:46 14° SW visible
02 Feb 9.9 04:09:39 30° S 04:09:39 30° S 04:14:33 10° SSE visible
02 Feb 10.4 06:07:54 11° WSW 06:08:54 12° WSW 06:11:43 10° SW visible
02 Feb 10.3 19:20:57 10° SSE 19:25:30 17° SE 19:25:30 17° SE visible
02 Feb 10.4 21:20:45 10° SW 21:23:45 22° SSW 21:23:45 22° SSW visible
